Weather History for KRDM - October, 2012

Change the Weather History Date:

Thursday, October 25, 2012

  Actual Average Record
Temperature  
Mean Temperature 38 °F 44 °F  
Max Temperature 50 °F 59 °F 84 °F (1988)
Min Temperature 26 °F 30 °F 13 °F (2011)
Degree Days  
Heating Degree Days 27 21  
Month to date heating degree days 460 417  
Since 1 July heating degree days 726 816  
Cooling Degree Days 0 0  
Month to date cooling degree days 0 0  
Year to date cooling degree days 206 222  
Moisture  
Dew Point 26 °F    
Average Humidity 64    
Maximum Humidity 92    
Minimum Humidity 36    
Precipitation  
Precipitation 0.00 in 0.02 in 0.82 in (1956)
Month to date precipitation 1.19 0.48  
Year to date precipitation 8.89 6.62  
Sea Level Pressure  
Sea Level Pressure 30.34 in    
Wind  
Wind Speed 3 mph (SE)    
Max Wind Speed 8 mph    
Max Gust Speed 9 mph    
Visibility 10 miles    
Events      
T = Trace of Precipitation, MM = Missing Value Source: NWS Daily Summary

Daily Weather History Graph

Daily Weather History Graph

Search for Another Location

Airport or City:

Trip Planner

Search our weather history database for the weather conditions in past years. The results will help you decide how hot, cold, wet, or windy it might be!

Date:

Astronomy

Oct. 25, 2012 Rise Set
Actual Time 7:33 AM PDT 6:03 PM PDT
Civil Twilight 7:03 AM PDT 6:33 PM PDT
Nautical Twilight 6:29 AM PDT 7:07 PM PDT
Astronomical Twilight 5:55 AM PDT 7:40 PM PDT
Moon 3:58 PM PDT (10/25) 3:27 AM PDT (10/25)
Length of Visible Light 11h 29m
Length of Day
10h 30m
Waxing Gibbous, 85% of the Moon is Illuminated
Oct 25
Waxing Gibbous
Oct 29
Full
Nov 6
Last Quarter
Nov 13
New
Nov 20
First Quarter

Hourly Weather History & Observations

Time (PDT) Temp. Windchill Dew Point Humidity Pressure Visibility Wind Dir Wind Speed Gust Speed Precip Events Conditions
12:56 AM 30.9 °F - 27.0 °F 85% 30.19 in 10.0 mi Calm Calm - N/A   Overcast
1:56 AM 30.0 °F - 27.0 °F 88% 30.21 in 10.0 mi Calm Calm - N/A   Overcast
2:56 AM 27.0 °F - 24.1 °F 89% 30.23 in 10.0 mi Calm Calm - N/A   Partly Cloudy
3:56 AM 28.0 °F 22.8 °F 25.0 °F 88% 30.24 in 10.0 mi South 4.6 mph - N/A   Mostly Cloudy
4:56 AM 30.9 °F - 27.0 °F 85% 30.26 in 10.0 mi Calm Calm - N/A   Overcast
6:56 AM 28.0 °F - 25.0 °F 88% 30.32 in 10.0 mi Calm Calm - N/A   Clear
7:56 AM 28.0 °F 21.7 °F 25.0 °F 88% 30.34 in 10.0 mi South 5.8 mph - N/A   Clear
8:56 AM 33.1 °F - 27.0 °F 78% 30.37 in 10.0 mi Calm Calm - N/A   Clear
11:56 AM 45.0 °F 41.8 °F 27.0 °F 49% 30.40 in 10.0 mi ENE 5.8 mph - N/A   Clear
12:56 PM 46.0 °F 43.9 °F 26.1 °F 46% 30.38 in 10.0 mi East 4.6 mph - N/A   Clear
1:56 PM 46.9 °F - 25.0 °F 42% 30.38 in 10.0 mi Calm Calm - N/A   Clear
2:56 PM 48.0 °F - 25.0 °F 41% 30.38 in 10.0 mi Calm Calm - N/A   Clear
3:56 PM 50.0 °F - 25.0 °F 38% 30.37 in 10.0 mi Calm Calm - N/A   Clear
4:56 PM 48.0 °F - 25.0 °F 41% 30.37 in 10.0 mi NE 5.8 mph - N/A   Clear
6:56 PM 35.1 °F - 26.1 °F 70% 30.41 in 10.0 mi Calm Calm - N/A   Clear
7:56 PM 34.0 °F - 26.1 °F 73% 30.40 in 10.0 mi Calm Calm - N/A   Clear
8:56 PM 30.9 °F - 26.1 °F 82% 30.40 in 10.0 mi Calm Calm - N/A   Clear
9:56 PM 33.1 °F 28.7 °F 27.0 °F 78% 30.38 in 10.0 mi SW 4.6 mph - N/A   Clear
10:56 PM 30.0 °F 24.1 °F 24.1 °F 79% 30.38 in 10.0 mi South 5.8 mph - N/A   Clear
11:56 PM 28.9 °F 23.9 °F 23.0 °F 78% 30.37 in 10.0 mi SSE 4.6 mph - N/A   Clear